User: anonymous   Login
Location: Stigler
(35.2540°N, 95.1230°W)
Time: 11:21:46
(UTC-06:00)
Language:

Cosmos 1805 - Orbit

View from above orbital plane
View from above orbital plane
View from above satellite
View from above satellite

Ground track
Ground track

The orbit data is extracted from the following two-line orbital elements,

1 17191U 86097A   14351.18094854  .00003325  00000-0  21034-3 0   607
2 17191 082.4975 207.0077 0008141 354.2452 005.8681 15.08676847525808
Epoch (UTC): 17 December 2014 04:20:33
Eccentricity: 0.0008141
inclination: 82.4975°
perigee height: 534 km
apogee height: 546 km
right ascension of ascending node: 207.0077°
argument of perigee: 354.2452°
revolutions per day: 15.08676847
mean anomaly at epoch: 5.8681°
orbit number at epoch: 52580

The dashed part of the orbit path shows where the satellite is in the earth's shadow,  

DLR